Tracking 20628 objects as of 7-Apr-2020
HD Live streaming from Space Station
objects crossing your sky now

BREEZE-M R/B

Track BREEZE-M R/B now!


NORAD ID: 26738
Int'l Code: 2001-014C
Perigee: 35,730.7 km
Apogee: 37,176.2 km
Inclination: 13.2 °
Period: 1,469.9 minutes
Semi major axis: 42824 km
RCS: 0.6845 m2 (medium)
Launch date: April 7, 2001
Source: Commonwealth of Independent States (former USSR) (CIS)
Launch site: TYURATAM MISSILE AND SPACE COMPLEX (TTMTR)

Note: This is a ROCKET BODY
aabbcc
Your satellite tracking list
Your tracking list is empty




NASA's NSSDC Master Catalog

Two Line Element Set (TLE):
1 26738U 01014C   20097.97075094 -.00000035 +00000-0 +00000-0 0  9990
2 26738 013.1803 031.3873 0168765 179.9911 048.5923 00.97963646067991
Source of the keplerian elements: AFSPC